TimeCDT,TemperatureF,Dew PointF,Humidity,Sea Level PressureIn,VisibilityMPH,Wind Direction,Wind SpeedMPH,Gust SpeedMPH,PrecipitationIn,Events,Conditions,WindDirDegrees,DateUTC
12:53 AM,60.1,43.0,53,29.96,10.0,NNE,3.5,-,N/A,,Clear,20,2012-10-19 05:53:00
1:53 AM,61.0,41.0,48,29.96,10.0,Calm,Calm,-,N/A,,Clear,0,2012-10-19 06:53:00
2:53 AM,60.1,39.9,47,29.96,10.0,NE,3.5,-,N/A,,Clear,50,2012-10-19 07:53:00
3:53 AM,60.1,39.0,46,29.96,10.0,Calm,Calm,-,N/A,,Clear,0,2012-10-19 08:53:00
4:53 AM,57.9,41.0,53,29.97,10.0,Calm,Calm,-,N/A,,Clear,0,2012-10-19 09:53:00
5:53 AM,52.0,43.0,71,29.97,10.0,NNW,3.5,-,N/A,,Clear,330,2012-10-19 10:53:00
6:53 AM,51.1,44.1,77,29.98,10.0,WNW,6.9,-,N/A,,Clear,290,2012-10-19 11:53:00
7:53 AM,51.1,43.0,74,29.99,10.0,WNW,6.9,-,N/A,,Clear,290,2012-10-19 12:53:00
8:53 AM,59.0,46.0,62,30.01,10.0,NW,3.5,-,N/A,,Clear,320,2012-10-19 13:53:00
9:53 AM,68.0,41.0,37,30.03,10.0,NE,4.6,-,N/A,,Clear,40,2012-10-19 14:53:00
10:53 AM,71.1,41.0,34,30.03,10.0,East,5.8,-,N/A,,Clear,80,2012-10-19 15:53:00
11:53 AM,75.0,39.9,28,30.02,10.0,East,5.8,-,N/A,,Clear,100,2012-10-19 16:53:00
12:53 PM,78.1,41.0,27,30.01,10.0,East,3.5,-,N/A,,Clear,90,2012-10-19 17:53:00
1:53 PM,79.0,36.0,21,29.96,10.0,ESE,8.1,-,N/A,,Clear,110,2012-10-19 18:53:00
2:53 PM,81.0,37.0,21,29.94,10.0,ESE,5.8,-,N/A,,Clear,120,2012-10-19 19:53:00
3:53 PM,81.0,36.0,20,29.92,10.0,SSE,8.1,-,N/A,,Clear,150,2012-10-19 20:53:00
4:53 PM,80.1,37.9,22,29.91,10.0,SE,8.1,-,N/A,,Clear,130,2012-10-19 21:53:00
5:53 PM,78.1,36.0,22,29.90,10.0,ESE,10.4,-,N/A,,Clear,120,2012-10-19 22:53:00
6:53 PM,73.9,37.0,26,29.90,10.0,SSE,9.2,-,N/A,,Clear,160,2012-10-19 23:53:00
7:53 PM,71.1,39.9,32,29.91,10.0,SE,4.6,-,N/A,,Clear,130,2012-10-20 00:53:00
8:53 PM,69.1,42.1,38,29.91,10.0,Calm,Calm,-,N/A,,Clear,0,2012-10-20 01:53:00
9:53 PM,64.9,44.1,47,29.91,10.0,ESE,4.6,-,N/A,,Clear,120,2012-10-20 02:53:00
10:53 PM,68.0,45.0,43,29.90,10.0,SSE,6.9,-,N/A,,Clear,160,2012-10-20 03:53:00
11:53 PM,68.0,46.9,47,29.90,10.0,South,9.2,-,N/A,,Clear,190,2012-10-20 04:53:00